Other Public Products
Issued by NWS Grand Forks, ND

Home | Current Version | Previous Version | Graphics & Text | Print | Product List | Glossary On
Versions: 1 2 3 4 5 6 7 8 9 10 11 12 13 14 15 16 17 18 19 20 21 22 23 24 25 26 27 28 29 30 31 32 33 34 35 36 37 38 39 40 41 42 43 44 45 46 47 48 49 50
000
FPUS83 KFGF 250431
OPUFGF
PRAIRIE TO PINES WEATHER ROUNDUP
NATIONAL WEATHER SERVICE EASTERN NORTH DAKOTA/GRAND FORKS ND
1100 PM CDT FRI OCT 24 2014

 **SATELLITE DATA USED TO AUGMENT SKY COVER AT AUTOMATED STATIONS**
 *****  WEATHER ACROSS EASTERN NORTH DAKOTA  *****

CITY           SKY/WX    TMP DP  RH WIND       PRES   REMARKS
GRAND FORKS    CLEAR     52  35  52 W12       29.89R
GRAND FORKS AF CLEAR     52  35  52 NW10      29.91R
GRAND CITY NWS   N/A     50 N/A N/A NW7         N/A
BUXTON           N/A     46  34  62 W10         N/A
DEVILS LAKE    CLEAR     48  30  49 W12       29.94R
FARGO          PTCLDY    50  32  50 W10       29.93R
WAHPETON ARPT  CLOUDY    57  32  38 NW14      29.96R
$$

 *****  WEATHER ACROSS CENTRAL AND WESTERN NORTH DAKOTA  *****

CITY           SKY/WX    TMP DP  RH WIND       PRES   REMARKS
JAMESTOWN      PTCLDY    49  34  56 W12       29.98R
BISMARCK       PTCLDY    48  32  53 W12       30.05R
MINOT          CLEAR     47  29  49 SW9       29.99R
MINOT AFB      CLEAR     43  31  62 W13       29.99R
GARRISON         N/A     49  29  46 NW12      30.01R
WILLISTON      PTCLDY    45  26  47 W12       30.05R
DICKINSON      CLOUDY    45  32  60 W6        30.06R
HETTINGER      CLOUDY    47  35  63 W3        30.10R
$$

 *****  OTHER OBSERVATIONS NORTHEAST NORTH DAKOTA  *****

CITY           SKY/WX    TMP DP  RH WIND       PRES   REMARKS
WALHALLA         N/A     50  32  50 W10       29.87R
LANGDON        FAIR      45  32  61 W13       29.90R
CAVALIER       FAIR      54  32  43 W17G24    29.87R
GRAFTON        FAIR      54  36  50 W15       29.88R
CANDO          FAIR      43  32  65 W12       29.95R
FORT TOTTEN    NOT AVBL
ROLLA          FAIR      50  28  43 NW17G25   29.94R
RUGBY          FAIR      37  32  81 W3        29.97R
 ***** THE ABOVE OBSERVATIONS ARE NON NWS ARE NOT QUALITY
        CONTROLLED AND MAY MIS-REPORT RAIN FOR SNOW...
$$

 *****  OTHER OBSERVATIONS SOUTHEAST NORTH DAKOTA *****

CITY           SKY/WX    TMP DP  RH WIND       PRES   REMARKS
COOPERSTOWN    NOT AVBL
VALLEY CITY    FAIR      46  34  61 W8        29.97R
OAKES            N/A     48  37  66 W7        30.00R
GWINNER        CLEAR     54  36  50 W9        29.99R
SHEYENNE NWR     N/A     54  34  46 W7        29.95S
BUFFALO          N/A     51  29  42 W10         N/A
WYNDMERE         N/A     55  36  47 W6          N/A
 ***** THE ABOVE OBSERVATIONS ARE NON NWS ARE NOT QUALITY
       CONTROLLED AND MAY MIS-REPORT RAIN FOR SNOW...
$$

  *****  WEATHER ACROSS NORTHERN MINNESOTA  *****

CITY           SKY/WX    TMP DP  RH WIND       PRES   REMARKS
FLAG ISLAND    CLEAR     55  34  44 W21G30    29.72S
WARROAD        CLEAR     50  37  62 W13       29.79R
ROSEAU         CLEAR     54  36  50 W15G22    29.80R
HALLOCK        CLEAR     48  34  57 W10       29.85R
THF RVR FALLS  CLEAR     52  34  50 W16       29.87R
HALSTAD          N/A     47  28  47 W12         N/A
FOSSTON        PTCLDY    50  34  53 W7        29.89R
BAUDETTE       CLEAR     54  35  48 W9        29.75R
WASKISH        PTCLDY    54  43  66 W9        29.81R
CROOKSTON      CLEAR     50  36  57 NW15      29.89S
$$
  *****  WEATHER ACROSS CENTRAL AND WEST MINNESOTA  *****

CITY           SKY/WX    TMP DP  RH WIND       PRES   REMARKS
BEMIDJI        PTCLDY    55  33  43 W16       29.85R
PARK RAPIDS    CLEAR     57  31  37 NW16      29.87R
WADENA         MOCLDY    55  34  44 W7        29.90R
DETROIT LAKES  MOCLDY    55  32  41 NW16G22   29.93R
MOORHEAD       PTCLDY    55  27  33 W10       29.94R
FERGUS FALLS   CLOUDY    57  30  35 NW13      29.95R
ELBOW LAKE     MOCLDY    56  37  48 NW8       29.94R
MORRIS MN      PTCLDY    57  39  51 NW13      29.94R
STAPLES        PTCLDY    55  34  44 W10       29.89R
WHEATON        MOCLDY    57  36  44 W9        29.98R
$$
  *****  WEATHER ELSEWHERE ACROSS MINNESOTA  *****

CITY           SKY/WX    TMP DP  RH WIND       PRES   REMARKS
DULUTH         MOCLDY    59  41  51 W15       29.76R
INTRNTL FALLS  CLEAR     53  35  50 W8        29.74R
ELY            CLEAR     57  34  41 W10G22    29.72R
CLOQUET        MOCLDY    57  39  51 W13       29.79S
BRAINERD       CLEAR     58  39  49 W9        29.86R
HIBBING        PTCLDY    61  33  35 W12G22    29.77R
ALEXANDRIA     MOCLDY    61  34  36 NW17G23   29.93R
SAINT CLOUD    CLEAR     62  43  49 NW12      29.88R
MINNEAPOLIS    PTCLDY    58  50  75 SW7       29.86S
$$

  *****  WEATHER ACROSS SOUTH DAKOTA  *****

CITY           SKY/WX    TMP DP  RH WIND       PRES   REMARKS
SIOUX FALLS    CLEAR     53  42  66 W3        29.99R
BROOKINGS      NOT AVBL
WATERTOWN      MOCLDY    55  41  59 NW5       29.99R
HURON          MOCLDY    54  41  61 N7        30.01R
SISSETON         N/A     59  36  42 N10       29.96R
ABERDEEN       CLOUDY    59  38  45 NW12      30.01R
MITCHELL       CLEAR     51  39  63 NW6       30.02R
PIERRE         PTCLDY    59  37  44 N14       30.03R
MOBRIDGE       CLOUDY    56  38  50 NW5       30.04R
RAPID CITY     CLEAR     47  34  60 NW12      30.12R
$$

  *****  SOME WEATHER IN NEARBY STATES *****

CITY           SKY/WX    TMP DP  RH WIND       PRES   REMARKS
GLASGOW MT     PTCLDY    46  28  49 W6        30.06R
GREAT FALLS MT LGT RAIN  48  37  65 E7        30.07R
CHEYENNE WY    CLEAR     52  27  38 W5        30.24R
SCOTTSBLUFF NE CLEAR     52  32  46 E5        30.11R
OMAHA NE       CLEAR     53  52  96 N5        30.01R FOG
DES MOINES IA  FOG       55  54  96 W3        29.97R VSB 1/4
DAVENPORT IA   FOG       53  52  96 W5        29.95S VSB 1/4
CHICAGO IL     CLOUDY    61  47  59 SW8       29.93F
EAU CLAIRE WI  FOG       50  49  96 SW6       29.85F VSB 1/4
LA CROSSE WI   CLOUDY    59  56  89 S6        29.89S
$$

  *****  SOME NATIONAL WEATHER *****

CITY           SKY/WX    TMP DP  RH WIND       PRES   REMARKS
LA GUARDIA NY  PTCLDY    58  41  53 NW10      29.83S
RALEIGH NC     PTCLDY    47  45  93 CALM      29.99F
ATLANTA GA     PTCLDY    56  44  64 NW8       30.03F
NEW ORLEANS LA CLEAR     65  53  65 N3        30.10S
OKLAHOMA CITY  CLEAR     66  59  78 S6        30.07R
ALBUQUERQUE NM CLEAR     60  36  40 CALM      30.28R
SALT LAKE CITY CLEAR     57  37  47 SE7       30.08S
LOS ANGELES CA CLEAR     68  65  90 W8        29.96R
BOISE ID       MOCLDY    51  48  89 CALM      29.96R
SEATTLE WA     LGT RAIN  53  47  79 NE7       29.85F
$$

*** WEATHER ACROSS MANITOBA...SASKATCHEWAN AND ONTARIO ***
                ***ONTARIO***

CITY           SKY/WX    TMP DP  RH WIND       PRES   REMARKS
GERALDTON      CLOUDY   N/A N/A N/A SW7         N/A
THUNDER BAY    CLEAR     41  41 100 W2        29.57F
SIOUX LOOKOUT  CLEAR     54  39  58 W13G22    29.58R
TORONTO        MOCLDY    54  43  66 CALM      29.91F
BIG TROUT LK   LGT RAIN  48  46  93 SW7       29.26F
PICKLE LAKE    NOT AVBL
DRYDEN         CLEAR     52  36  54 W13G18    29.62R
KENORA         CLEAR     54  34  47 W15G23    29.68R
$$
                *** MANITOBA***

CITY           SKY/WX    TMP DP  RH WIND       PRES   REMARKS
BRANDON        CLEAR     43  32  65 W13       29.89R
DAUPHIN        CLEAR     46  32  57 W20       29.83R
ISLAND LAKE    LGT RAIN  45  43  93 W18G28    29.45R
PILOT MOUND      N/A     50  32  50 W14G21      N/A
THE PAS        PTCLDY    43  32  65 W17G29    29.67R
THOMPSON       LGT RAIN  39  37  93 W14G20    29.47R
WINNIPEG       CLEAR     48  34  57 W13       29.80R
LYNN LAKE      FLURRIES  34  30  86 W14G28    29.50R WCI  24
CHURCHILL      FOG       37  37 100 NE3       29.36F VSB 1/2
GILLAM         LGT RAIN  43  41  93 W8        29.38R
$$
                ***SASKATCHEWAN***

CITY           SKY/WX    TMP DP  RH WIND       PRES   REMARKS
ESTEVAN        CLEAR     39  30  70 W10       30.00R
KINDERSLEY     PTCLDY    36  27  69 S5        29.99R
LLOYDMINSTER   CLEAR     32  23  69 W13       29.92R WCI  22
PRINCE ALBERT  PTCLDY    41  28  60 W8        29.85R
REGINA         CLEAR     36  32  87 W10       29.99R



USA.gov is the U.S. government's official web portal to all federal, state and local government web resources and services.